Sturgeon Bay, WI

8:58 AM CDT on August 30, 2016 (GMT -0500)
Door County Cherryland

Weather History for KSUE - March, 2013

Change the Weather History Date:

Friday, March 15, 2013

  Actual Average Record
Temperature  
Mean Temperature 26 °F -  
Max Temperature 32 °F 38 °F 61 °F (1990)
Min Temperature 19 °F 21 °F -6 °F (1916)
Degree Days  
Heating Degree Days 40    
Moisture  
Dew Point 21 °F    
Average Humidity 73    
Maximum Humidity 86    
Minimum Humidity 55    
Precipitation  
Precipitation 0.00 in - - ()
Sea Level Pressure  
Sea Level Pressure 29.93 in    
Wind  
Wind Speed 12 mph (North)    
Max Wind Speed 17 mph    
Max Gust Speed 23 mph    
Visibility 8 miles    
Events      
Averages and records for this station are not official NWS values.
T = Trace of Precipitation, MM = Missing Value Source: NWS Daily Summary

Daily Weather History Graph

Daily Weather History Graph

Search for Another Location

Airport or City:

Trip Planner

Search our weather history database for the weather conditions in past years. The results will help you decide how hot, cold, wet, or windy it might be!

Date:

Astronomy

Mar. 15, 2013 Rise Set
Actual Time 7:01 AM CDT 6:56 PM CDT
Civil Twilight 6:32 AM CDT 7:25 PM CDT
Nautical Twilight 5:58 AM CDT 7:59 PM CDT
Astronomical Twilight 5:23 AM CDT 8:34 PM CDT
Moon 8:40 AM CDT (3/15) 11:22 PM CDT (3/15)
Length of Visible Light 12h 52m
Length of Day
11h 54m
Waxing Crescent, 15% of the Moon is Illuminated
Mar 15
Waxing Crescent
Mar 19
First Quarter
Mar 27
Full
Apr 2
Last Quarter
Apr 10
New

Hourly Weather History & Observations

Time (CDT) Temp. Windchill Dew Point Humidity Pressure Visibility Wind Dir Wind Speed Gust Speed Precip Events Conditions
12:15 AM 30.2 °F 20.2 °F 24.8 °F 80% 29.97 in 10.0 mi WSW 12.7 mph - N/A   Overcast
12:35 AM 30.2 °F 19.3 °F 24.8 °F 80% 29.96 in 10.0 mi WSW 15.0 mph - N/A   Overcast
12:55 AM 30.2 °F 19.8 °F 24.8 °F 80% 29.95 in 10.0 mi WSW 13.8 mph - N/A   Overcast
1:15 AM 30.2 °F 18.5 °F 24.8 °F 80% 29.95 in 10.0 mi WSW 17.3 mph 21.9 mph N/A   Overcast
1:35 AM 30.2 °F 18.5 °F 24.8 °F 80% 29.94 in 10.0 mi WSW 17.3 mph 23.0 mph N/A   Overcast
1:55 AM 30.2 °F 18.9 °F 24.8 °F 80% 29.94 in 10.0 mi West 16.1 mph 23.0 mph N/A   Overcast
2:15 AM 30.2 °F 20.2 °F 24.8 °F 80% 29.93 in 10.0 mi West 12.7 mph - N/A   Overcast
2:35 AM 30.2 °F 19.3 °F 24.8 °F 80% 29.93 in 10.0 mi West 15.0 mph 19.6 mph N/A   Overcast
2:55 AM 30.2 °F 20.2 °F 24.8 °F 80% 29.92 in 10.0 mi West 12.7 mph - N/A   Overcast
3:15 AM 30.2 °F 20.8 °F 24.8 °F 80% 29.91 in 10.0 mi West 11.5 mph 18.4 mph N/A   Overcast
3:35 AM 30.2 °F 21.3 °F 24.8 °F 80% 29.91 in 10.0 mi West 10.4 mph - N/A   Overcast
3:55 AM 30.2 °F 21.3 °F 24.8 °F 80% 29.91 in 10.0 mi West 10.4 mph - N/A   Overcast
4:15 AM 30.2 °F 21.3 °F 24.8 °F 80% 29.89 in 10.0 mi WSW 10.4 mph - N/A   Overcast
4:55 AM 30.2 °F 21.3 °F 24.8 °F 80% 29.89 in 10.0 mi West 10.4 mph - N/A   Overcast
5:15 AM 30.2 °F 21.9 °F 24.8 °F 80% 29.89 in 10.0 mi West 9.2 mph - N/A   Overcast
5:35 AM 30.2 °F 21.9 °F 24.8 °F 80% 29.89 in 10.0 mi WSW 9.2 mph - N/A   Overcast
5:55 AM 30.2 °F 21.9 °F 24.8 °F 80% 29.89 in 10.0 mi WSW 9.2 mph - N/A   Overcast
6:15 AM 30.2 °F 22.6 °F 24.8 °F 80% 29.89 in 10.0 mi West 8.1 mph - N/A   Overcast
6:35 AM 30.2 °F 21.9 °F 24.8 °F 80% 29.90 in 9.0 mi West 9.2 mph - N/A   Overcast
6:55 AM 30.2 °F 22.6 °F 24.8 °F 80% 29.90 in 8.0 mi West 8.1 mph - N/A   Overcast
7:15 AM 30.2 °F 24.3 °F 26.6 °F 86% 29.90 in 7.0 mi West 5.8 mph - N/A   Overcast
7:35 AM 30.2 °F 24.3 °F 26.6 °F 86% 29.90 in 7.0 mi West 5.8 mph - N/A   Overcast
7:55 AM 30.2 °F 23.4 °F 26.6 °F 86% 29.91 in 7.0 mi WNW 6.9 mph - N/A   Overcast
8:15 AM 30.2 °F 22.6 °F 26.6 °F 86% 29.92 in 5.0 mi NW 8.1 mph - N/A   Overcast
8:35 AM 30.2 °F 21.9 °F 26.6 °F 86% 29.93 in 2.0 mi North 9.2 mph - N/A   Overcast
8:55 AM 30.2 °F 20.2 °F 26.6 °F 86% 29.93 in 2.5 mi NNE 12.7 mph - N/A   Overcast
9:15 AM 30.2 °F 20.8 °F 26.6 °F 86% 29.94 in 3.0 mi NNE 11.5 mph - N/A   Overcast
9:35 AM 30.2 °F 20.8 °F 26.6 °F 86% 29.94 in 1.8 mi NNE 11.5 mph - N/A   Overcast
9:55 AM 30.2 °F 21.3 °F 26.6 °F 86% 29.94 in 3.0 mi NNE 10.4 mph - N/A   Overcast
10:15 AM 30.2 °F 20.2 °F 24.8 °F 80% 29.94 in 5.0 mi NE 12.7 mph - N/A   Overcast
10:35 AM 30.2 °F 20.2 °F 24.8 °F 80% 29.94 in 10.0 mi NNE 12.7 mph - N/A   Overcast
10:55 AM 30.2 °F 19.8 °F 21.2 °F 69% 29.94 in 10.0 mi NNE 13.8 mph - N/A   Overcast
11:15 AM 30.2 °F 20.8 °F 21.2 °F 69% 29.93 in 10.0 mi NNE 11.5 mph - N/A   Overcast
11:35 AM 30.2 °F 19.8 °F 21.2 °F 69% 29.93 in 10.0 mi NE 13.8 mph - N/A   Overcast
11:55 AM 30.2 °F 21.9 °F 21.2 °F 69% 29.93 in 10.0 mi NNE 9.2 mph - N/A   Overcast
12:15 PM 30.2 °F 21.9 °F 21.2 °F 69% 29.94 in 10.0 mi NNE 9.2 mph - N/A   Overcast
12:35 PM 32.0 °F 23.6 °F 21.2 °F 64% 29.94 in 10.0 mi North 10.4 mph - N/A   Overcast
12:55 PM 30.2 °F 21.3 °F 21.2 °F 69% 29.94 in 10.0 mi North 10.4 mph - N/A   Overcast
1:15 PM 32.0 °F 23.6 °F 21.2 °F 64% 29.94 in 10.0 mi NNE 10.4 mph - N/A   Mostly Cloudy
1:35 PM 32.0 °F 24.2 °F 19.4 °F 60% 29.94 in 10.0 mi NE 9.2 mph 16.1 mph N/A   Mostly Cloudy
1:55 PM 32.0 °F 24.2 °F 19.4 °F 60% 29.93 in 10.0 mi NNE 9.2 mph - N/A   Scattered Clouds
2:15 PM 32.0 °F 25.6 °F 19.4 °F 60% 29.93 in 10.0 mi NNE 6.9 mph - N/A   Mostly Cloudy
2:35 PM 32.0 °F 23.0 °F 19.4 °F 60% 29.93 in 10.0 mi North 11.5 mph - N/A   Overcast
2:55 PM 32.0 °F 26.4 °F 19.4 °F 60% 29.93 in 10.0 mi NE 5.8 mph - N/A   Overcast
3:15 PM 32.0 °F 24.2 °F 17.6 °F 55% 29.93 in 10.0 mi East 9.2 mph - N/A   Overcast
3:35 PM 32.0 °F 23.6 °F 17.6 °F 55% 29.92 in 10.0 mi East 10.4 mph - N/A   Overcast
3:55 PM 30.2 °F 21.9 °F 17.6 °F 60% 29.92 in 10.0 mi East 9.2 mph - N/A   Overcast
4:15 PM 30.2 °F 20.2 °F 17.6 °F 60% 29.92 in 10.0 mi East 12.7 mph - N/A   Scattered Clouds
4:35 PM 30.2 °F 20.8 °F 17.6 °F 60% 29.92 in 10.0 mi NE 11.5 mph - N/A   Scattered Clouds
4:55 PM 30.2 °F 21.9 °F 15.8 °F 55% 29.92 in 10.0 mi East 9.2 mph - N/A   Mostly Cloudy
5:15 PM 28.4 °F 18.5 °F 15.8 °F 59% 29.93 in 10.0 mi ENE 11.5 mph 16.1 mph N/A   Overcast
5:35 PM 28.4 °F 19.1 °F 15.8 °F 59% 29.92 in 10.0 mi ENE 10.4 mph 17.3 mph N/A   Overcast
5:55 PM 26.6 °F 16.8 °F 15.8 °F 64% 29.93 in 10.0 mi ENE 10.4 mph 16.1 mph N/A   Overcast
6:15 PM 26.6 °F 17.5 °F 15.8 °F 64% 29.92 in 10.0 mi ENE 9.2 mph - N/A   Overcast
6:35 PM 26.6 °F 15.7 °F 15.8 °F 64% 29.93 in 10.0 mi ENE 12.7 mph - N/A   Overcast
6:55 PM 26.6 °F 15.7 °F 15.8 °F 64% 29.93 in 10.0 mi ENE 12.7 mph - N/A   Overcast
7:15 PM 26.6 °F 15.7 °F 14.0 °F 59% 29.92 in 10.0 mi NE 12.7 mph 19.6 mph N/A   Overcast
7:35 PM 26.6 °F 16.2 °F 14.0 °F 59% 29.93 in 10.0 mi NE 11.5 mph - N/A   Overcast
7:55 PM 26.6 °F 16.8 °F 14.0 °F 59% 29.93 in 10.0 mi NE 10.4 mph - N/A   Overcast
8:15 PM 26.6 °F 16.8 °F 14.0 °F 59% 29.92 in 10.0 mi NE 10.4 mph 17.3 mph N/A   Overcast
8:35 PM 26.6 °F 15.2 °F 14.0 °F 59% 29.93 in 10.0 mi NE 13.8 mph 20.7 mph N/A   Overcast
8:55 PM 24.8 °F 14.6 °F 12.2 °F 59% 29.93 in 10.0 mi NE 10.4 mph 17.3 mph N/A   Overcast
9:15 PM 24.8 °F 15.3 °F 14.0 °F 64% 29.94 in 9.0 mi NNE 9.2 mph - N/A   Overcast
9:35 PM 24.8 °F 12.9 °F 14.0 °F 64% 29.94 in 10.0 mi NE 13.8 mph - N/A   Overcast
9:55 PM 23.0 °F 12.4 °F 15.8 °F 74% 29.96 in 4.0 mi NE 10.4 mph - N/A   Overcast
10:15 PM 21.2 °F 10.1 °F 15.8 °F 80% 29.96 in 3.0 mi NE 10.4 mph - N/A   Overcast
10:35 PM 21.2 °F 7.8 °F 15.8 °F 80% 29.95 in 2.0 mi NNE 15.0 mph 18.4 mph N/A   Overcast
10:55 PM 19.4 °F 7.2 °F 15.8 °F 86% 29.95 in 1.8 mi NNE 11.5 mph - N/A   Overcast
11:15 PM 19.4 °F 7.2 °F 15.8 °F 86% 29.94 in 1.5 mi NNE 11.5 mph - N/A   Overcast
11:35 PM 19.4 °F 7.9 °F 15.8 °F 86% 29.94 in 1.5 mi NNE 10.4 mph - N/A   Overcast
11:55 PM 19.4 °F 7.2 °F 15.8 °F 86% 29.94 in 1.8 mi NNE 11.5 mph - N/A   Overcast